Flag for U.S.A. Weather past 2 weeks in Santa Clara, California, U.S.A.

Now
54 °F

Clear.


Feels Like: 52 °F
Forecast: 43 / 65 °F
Wind: 8 mph from Northwest

Location: San Jose International Airport

Current Time: Jan 30, 2015 at 8:04:52 PM

Latest Report: Jan 30, 2015 at 6:53 PM


Visibility: 10 mi

Pressure: 29.93 "Hg

Humidity: 86%

Dew point: 50 °F

Location of Santa ClaraLocation

Historic Weather in Santa Clara — Graph

°F

Santa Clara temperature yesterday

Maximum temperature yesterday: 64 °F (at 2:53 PM)
Minimum temperature yesterday: 43 °F (at 3:53 AM)
Average temperature yesterday: 53 °F

Past Weeks' High & Low Weather Summary

 TemperatureHumidityPressure
High69 °F (Jan 24, 3:53 PM)100% (Jan 19, 5:04 AM)30.36 "Hg (Jan 19, 5:04 AM)
Low37 °F (Jan 23, 5:53 AM)29% (Jan 24, 3:53 PM)29.89 "Hg (Jan 30, 3:53 PM)
Average53 °F75%30.17 "Hg
* Reported Jan 15 6:53 PM — Jan 30 6:53 PM, Santa Clara, Weather by CustomWeather, © 2014

Note: Actual official high and low records may vary slightly from our data, if they occured in-between our weather recording intervals... More about our weather records

Advertising

Santa Clara weather history for previous 24 hours

 ConditionsComfort  
Time TempWeatherWind HumidityBarometerVisibility
6:53 PM
Jan 30
54 °FClear.8 mph86%29.93 "Hg10 mi
5:53 PM57 °FClear.10 mph81%29.91 "Hg10 mi
4:53 PM62 °FSunny.9 mph62%29.89 "Hg10 mi
3:53 PM64 °FSunny.9 mph52%29.89 "Hg10 mi
2:53 PM67 °FSunny.13 mph42%29.90 "Hg10 mi
1:53 PM66 °FSunny.10 mph43%29.92 "Hg10 mi
12:53 PM63 °FSunny.7 mph60%29.94 "Hg6 mi
11:53 AM58 °FHaze.No wind75%29.98 "Hg5 mi
10:53 AM55 °FScattered clouds.No wind80%30.02 "Hg3 mi
9:53 AM51 °FFog.No wind92%30.03 "Hg2 mi
8:53 AM50 °FFog.3 mph93%30.03 "Hg2 mi
7:53 AM50 °FFog.3 mph93%30.03 "Hg2 mi
6:53 AM50 °FFog.No wind93%30.03 "Hg2 mi
5:53 AM50 °FFog.3 mph96%30.03 "Hg4 mi
4:53 AM50 °FFog.No wind93%30.03 "Hg5 mi
3:53 AM50 °FLow clouds.No wind89%30.03 "Hg10 mi
2:53 AM47 °FLow clouds.No wind90%30.04 "Hg10 mi
1:53 AM49 °FLow clouds.No wind90%30.05 "Hg10 mi
12:53 AM49 °FClear.No wind93%30.06 "Hg9 mi
11:53 PM
Jan 29
51 °FClear.No wind89%30.07 "Hg10 mi
10:53 PM53 °FClear.No wind89%30.07 "Hg10 mi
9:53 PM53 °FClear.No wind89%30.07 "Hg10 mi
8:53 PM52 °FClear.6 mph89%30.08 "Hg10 mi
Weather by CustomWeather, © 2014

See weather overviewHow to use our weather pages